Location: Clyde
(45.1830°S, 169.3170°E)
Time: 17:49:03
(UTC+12:00)

Cosmos 1825 Rocket - Pass Details

Date: 14 May 2021
Orbit: 604 x 630 km, 82.5° (Epoch: 16 June)

Event Time Altitude Azimuth Distance (km) Brightness Sun altitude
Rises 17:47:36 0° 355° (N) 2,900 7.4 -4.5°
Reaches altitude 10° 17:49:50 10° 355° (N) 1,998 6.6 -4.9°
Maximum altitude 17:54:16 85° 83° (E) 636 3.6 -5.6°
Drops below altitude 10° 17:58:44 10° 170° (S) 2,011 5.9 -6.3°
Sets 18:00:58 0° 170° (S) 2,921 6.7 -6.7°
